If you wish to contribute or participate in the discussions about articles you are invited to join SKYbrary as a registered user

 Actions

Akanu Ibiam International Airport

From SKYbrary Wiki

DNEN
Airport
ICAO: DNEN – IATA: ENU
Summary
Name Akanu Ibiam International Airport
Region Africa
Territory Nigeria NG.gif
Location Emene, Enugu State
Serving Enugu
Elevation 142.037 m <br />466 ft <br />466 ft142.037 m <br />
Coordinates 6° 28' 31.66" N, 7° 33' 42.88" E
Runways
Designator Length Width Surface ROPS
8/26 2402 m7,880.577 ft <br /> 45 m147.638 ft <br /> ASP /


METAR
Observation DNEN 130400Z 00000KT 9999 FEW009 25/23 Q1010 NOSIG
Station Enugu
Date/Time 13 April 2021 04:00:00
Wind direction
Wind speed 00 kts
Lowest cloud amount few clouds
Temperature 25°C
Dew point 23°C
Humidity 88%
QNH 1010 hPa
Weather condition n/a

Akanu Ibiam International Airport, also known as Enugu Airport, is an airport serving Enugu, a city in the Enugu State of Nigeria.

Climatology

Tropical Savanna climate (Köppen climate classification Aw)

Maps

Terrain

Loading map...

Airport Layout

Loading map...


Accidents & Serious Incidents at or in vicinity of DNEN

None on SKYbrary